sat.trackr.live / text

‹ back to catalog

STARLINK-31690

NORAD 59581 · 2024-076T

PAYLOAD ACTIVE UNKNOWN

§ Identity

Operator
Country
US
Launch date
2024-04-23
Launch site
AFETR
Launch vehicle
Mass (kg)
RCS (m²)

Purposes: comms

External: N2YO · Heavens-Above · Gunter

§ Orbital elements

Epoch: 2026-05-25T02:52:11.553024Z

Period
94.27 min
Inclination
43.0023°
Eccentricity
0.0001477
Mean motion
15.27569322 rev/d
Perigee alt
482.1 km
Apogee alt
484.1 km
Semi-major
6,861.2 km
B*
4.6503e-5
RAAN
297.1859°
Arg perigee
273.5679°
Mean anomaly
86.5003°
Rev number
11,820

§ Raw data

STARLINK-316901 59581U 24076T   26145.11957816  .00001017  00000+0  46503-4 0  99932 59581  43.0023 297.1859 0001477 273.5679  86.5003 15.27569322118207

JSON: /api/v1/satellites/59581 · /tle

For live sub-satellite position, see the globe view (requires WebGL).

§ Visibility from observer

Set your observer location to see the next 7 days of passes ≥ 10°. The values pass through the URL so the page stays shareable.

No JS? Fill the form by hand. The geolocation button needs JavaScript.